Weather reports worldwide

Advertisment
Milano/Malpensa, Italy (16066): temperature & dewpoint: 17.01.2019 03:00:00 - 23.01.2019 03:00:00 (CET)Milano/Malpensa, Italy (16066): wind speed: 17.01.2019 03:00:00 - 23.01.2019 03:00:00 (CET)Milano/Malpensa, Italy (16066): wind direction: 17.01.2019 03:00:00 - 23.01.2019 03:00:00 (CET)Milano/Malpensa, Italy (16066): reduced air pressure: 17.01.2019 03:00:00 - 23.01.2019 03:00:00 (CET)Milano/Malpensa, Italy (16066): visibility: 17.01.2019 03:00:00 - 23.01.2019 03:00:00 (CET)Milano/Malpensa, Italy (16066): precipitation: 17.01.2019 03:00:00 - 23.01.2019 03:00:00 (CET)
Date & Time tt [°C] td [°C] ff [km/h] ff [kn] dd ppp [hPa] vv [km] rr [mm]
23.01.2019 03:00:00 -5,0 -6,0 5 3 N - 7 -
23.01.2019 02:00:00 -6,0 -7,0 8 4 NNE - 6 -
23.01.2019 01:00:00 -5,9 -6,8 9 5 NNE 1000,7 7 -
23.01.2019 00:00:00 -5,0 -7,0 11 6 N - 7 -
22.01.2019 23:00:00 -5,0 -6,0 5 3 N - 10 -
22.01.2019 22:00:00 -4,2 -5,6 4 2 - 1002,2 10 0,0
22.01.2019 21:00:00 -4,0 -6,0 5 3 NNE - 10 -
22.01.2019 20:00:00 -2,0 -5,0 4 2 NE - 10 -
22.01.2019 19:00:00 0,7 -2,8 8 4 SW 1003,5 10 -
22.01.2019 18:00:00 3,0 -4,0 9 5 SSW - 10 -
22.01.2019 17:00:00 5,0 -4,0 11 6 SW - 10 -
22.01.2019 16:00:00 6,0 -4,0 8 4 WSW 1004,6 10 0,0
22.01.2019 15:00:00 6,0 -5,0 8 4 SW - 10 -
22.01.2019 14:00:00 6,0 -3,0 8 4 WSW - 10 -
22.01.2019 13:00:00 5,9 -2,8 5 3 - 1008,3 8 -
22.01.2019 12:00:00 5,0 -2,0 4 2 - - 8 -
22.01.2019 11:00:00 3,0 -3,0 4 2 - - 10 -
22.01.2019 10:00:00 0,4 -2,3 2 1 - 1010,4 10 0,0
22.01.2019 09:00:00 -6,0 -7,0 9 5 N - 10 -
22.01.2019 08:00:00 -6,0 -7,0 8 4 NNE - 10 -
22.01.2019 07:00:00 -6,9 -8,1 8 4 N 1010,9 10 -
22.01.2019 06:00:00 -6,0 -6,0 5 3 NE - 7 -
22.01.2019 05:00:00 -5,0 -5,0 8 4 N - 7 -
22.01.2019 04:00:00 -5,5 -6,1 9 5 N 1012,8 7 0,0
22.01.2019 03:00:00 -4,0 -5,0 8 4 NNE - 7 -
22.01.2019 02:00:00 -5,0 -6,0 11 6 N - 8 -
22.01.2019 01:00:00 -4,6 -5,7 5 3 N 1014,7 10 -
22.01.2019 00:00:00 -4,0 -5,0 9 5 N - 10 -
21.01.2019 23:00:00 -3,0 -4,0 5 3 NNE - 10 -
21.01.2019 22:00:00 -2,9 -4,1 4 2 NNE 1015,2 10 0,0
21.01.2019 21:00:00 -1,0 -3,0 8 4 NNE - 10 -
21.01.2019 20:00:00 -1,0 -4,0 2 1 - - 10 -
21.01.2019 19:00:00 2,2 -2,7 5 3 SSW 1015,0 10 -
21.01.2019 18:00:00 5,0 -1,0 9 5 WSW - 10 -
21.01.2019 17:00:00 7,0 -2,0 13 7 SW - 10 -
21.01.2019 16:00:00 8,2 -3,8 8 4 SW 1015,0 10 0,0
21.01.2019 15:00:00 8,0 -4,0 5 3 S - 10 -
21.01.2019 14:00:00 8,0 -4,0 4 2 - - 10 -
21.01.2019 13:00:00 7,0 -3,4 5 3 WNW 1016,7 10 -
21.01.2019 12:00:00 6,0 -2,0 4 2 - - 10 -
21.01.2019 11:00:00 4,0 -2,0 13 7 N - 10 -
21.01.2019 10:00:00 1,4 -1,0 11 6 N 1017,6 10 0,0
21.01.2019 09:00:00 -4,0 -5,0 11 6 N - 10 -
21.01.2019 08:00:00 -5,0 -5,0 11 6 NNE - 10 -
21.01.2019 07:00:00 -5,1 -5,8 9 5 N 1017,0 10 -
21.01.2019 06:00:00 -5,0 -6,0 4 2 NNE - 10 -
21.01.2019 05:00:00 -5,0 -6,0 4 2 NNE - 10 -
21.01.2019 04:00:00 -4,8 -5,7 4 2 - 1016,5 10 0,0
21.01.2019 03:00:00 -5,0 -6,0 9 5 N - 10 -
21.01.2019 02:00:00 -5,0 -6,0 8 4 N - 10 -
21.01.2019 01:00:00 -4,5 -5,1 9 5 NNE 1016,6 10 -
21.01.2019 00:00:00 -4,0 -5,0 5 3 NNE - 10 -
20.01.2019 23:00:00 -4,0 -5,0 5 3 NNE - 10 -
20.01.2019 22:00:00 -3,7 -4,4 5 3 NNE 1016,0 10 0,0
20.01.2019 21:00:00 -3,0 -5,0 5 3 NE - 10 -
20.01.2019 20:00:00 -1,0 -4,0 4 2 NNE - 10 -
20.01.2019 19:00:00 0,5 -3,9 2 1 - 1014,8 10 -
20.01.2019 18:00:00 4,0 -2,0 9 5 WSW - 10 -
20.01.2019 17:00:00 5,0 -3,0 8 4 WSW - 10 -
20.01.2019 16:00:00 6,0 -2,9 9 5 WSW 1013,9 10 0,0
20.01.2019 15:00:00 7,0 -2,0 8 4 - - 10 -
20.01.2019 14:00:00 6,0 -2,0 2 1 - - 10 -
20.01.2019 13:00:00 6,2 -2,0 4 2 - 1014,6 10 -
20.01.2019 12:00:00 6,0 -1,0 4 2 - - 10 -
20.01.2019 11:00:00 3,0 -1,0 8 4 NNE - 10 -
20.01.2019 10:00:00 1,0 -0,3 8 4 NNE 1014,8 10 0,0
20.01.2019 09:00:00 -4,0 -4,0 9 5 N - 10 -
20.01.2019 08:00:00 -4,0 -5,0 11 6 N - 10 -
20.01.2019 07:00:00 -5,3 -5,9 8 4 N 1013,6 10 -
20.01.2019 06:00:00 -5,0 -5,0 8 4 N - 10 -
20.01.2019 05:00:00 -4,0 -5,0 8 4 N - 10 -
20.01.2019 04:00:00 -4,1 -4,7 9 5 N 1014,3 10 0,0
20.01.2019 03:00:00 -5,0 -6,0 11 6 N - 8 -
20.01.2019 02:00:00 -4,0 -5,0 11 6 N - 8 -
20.01.2019 01:00:00 -3,8 -4,6 9 5 N 1014,9 8 -
20.01.2019 00:00:00 -3,0 -4,0 9 5 N - 8 -
19.01.2019 23:00:00 -3,0 -3,0 9 5 N - 10 -
19.01.2019 22:00:00 -2,3 -2,8 5 3 N 1015,4 10 0,0
19.01.2019 21:00:00 0,0 -2,0 5 3 NNE - 10 -
19.01.2019 20:00:00 1,0 -1,0 5 3 N - 10 -
19.01.2019 19:00:00 3,0 -1,2 5 3 NNE 1015,2 10 -
19.01.2019 18:00:00 4,0 -1,0 8 4 NNE - 10 -
19.01.2019 17:00:00 4,0 0,0 8 4 NNE - 10 -
19.01.2019 16:00:00 4,9 -0,9 5 3 NNW 1015,3 10 0,0
19.01.2019 15:00:00 5,0 0,0 8 4 N - 10 -
19.01.2019 14:00:00 5,0 0,0 8 4 N - 10 -
19.01.2019 13:00:00 4,1 0,2 11 6 N 1016,9 10 -
19.01.2019 12:00:00 4,0 2,0 13 7 N - 10 -
19.01.2019 11:00:00 3,0 2,0 11 6 NNE - 10 -
19.01.2019 10:00:00 2,6 1,3 11 6 N 1017,5 10 0,0
19.01.2019 09:00:00 2,0 1,0 9 5 N - 10 -
19.01.2019 08:00:00 2,0 2,0 9 5 N - 10 -
19.01.2019 07:00:00 2,3 1,5 9 5 N 1016,7 10 -
19.01.2019 06:00:00 3,0 1,0 4 2 - - 10 -
19.01.2019 05:00:00 4,0 0,0 5 3 SSE - 10 -
19.01.2019 04:00:00 4,5 -0,4 4 2 - 1016,9 10 0,0
19.01.2019 03:00:00 3,0 2,0 2 1 - - 10 -
19.01.2019 02:00:00 3,0 2,0 2 1 - - 10 -
19.01.2019 01:00:00 1,8 1,1 5 3 N 1016,8 10 -
19.01.2019 00:00:00 4,0 2,0 8 4 N - 10 -
18.01.2019 23:00:00 5,0 2,0 5 3 E - 10 -
18.01.2019 22:00:00 5,0 3,0 5 3 ENE - 10 -
18.01.2019 21:00:00 6,0 3,0 11 6 ESE - 10 -
18.01.2019 20:00:00 6,0 3,0 8 4 E - 10 -
18.01.2019 19:00:00 5,3 2,7 11 6 E 1015,1 10 -
18.01.2019 18:00:00 6,0 2,0 16 9 ESE - 10 -
18.01.2019 17:00:00 7,0 0,0 21 11 ESE - 10 -
18.01.2019 16:00:00 10,9 -15,1 11 6 ENE 1012,4 10 0,0
18.01.2019 15:00:00 12,0 -14,0 16 9 NE - 10 -
18.01.2019 14:00:00 12,0 -14,0 16 9 NNE - 10 -
18.01.2019 13:00:00 11,0 -15,0 22 12 NNE 1011,5 10 -
18.01.2019 12:00:00 11,0 -12,0 29 16 NNE - 10 -
18.01.2019 11:00:00 10,0 -9,0 21 11 N - 10 -
18.01.2019 10:00:00 8,8 -8,2 26 14 NNE 1011,0 10 0,0
18.01.2019 09:00:00 2,0 -4,0 8 4 - - 10 -
18.01.2019 08:00:00 0,0 -2,0 21 11 N - 10 -
18.01.2019 07:00:00 1,0 1,0 13 7 NW 1009,4 10 -
18.01.2019 06:00:00 -1,0 -1,0 5 3 NNE - 10 -
18.01.2019 05:00:00 2,0 2,0 5 3 NW - - -
18.01.2019 04:00:00 2,9 2,8 11 6 WNW 1009,8 - 0,0
18.01.2019 03:00:00 3,0 3,0 5 3 N - - -
18.01.2019 02:00:00 3,0 3,0 4 2 - - - -
18.01.2019 01:00:00 3,4 3,2 5 3 NNW 1010,2 0,3 -
18.01.2019 00:00:00 5,0 5,0 5 3 WSW - 1,0 -
17.01.2019 23:00:00 5,0 5,0 8 4 W - 1,5 -
17.01.2019 22:00:00 5,3 5,0 5 3 SW 1010,9 3,0 0,0
17.01.2019 21:00:00 4,0 4,0 4 2 - - 5 -
17.01.2019 20:00:00 6,0 5,0 2 1 - - 5 -
17.01.2019 19:00:00 5,4 4,1 8 4 NNE 1011,2 5 -
17.01.2019 18:00:00 6,0 5,0 9 5 E - 5 -
17.01.2019 17:00:00 - - - - - - - -
17.01.2019 16:00:00 7,9 5,9 8 4 SSE 1011,5 5 0,0
17.01.2019 15:00:00 8,0 5,0 5 3 SSE - 4,0 -
17.01.2019 14:00:00 8,0 6,0 5 3 SSE - 5 -
17.01.2019 13:00:00 7,6 6,1 2 1 - 1013,2 5 -
17.01.2019 12:00:00 7,0 6,0 5 3 WNW - 4,0 -
17.01.2019 11:00:00 6,0 6,0 5 3 N - 3,5 -
17.01.2019 10:00:00 5,6 5,0 4 2 - 1014,7 3,0 0,0
17.01.2019 09:00:00 6,0 5,0 2 1 - - 8 -
17.01.2019 08:00:00 6,0 5,0 4 2 N - 8 -
17.01.2019 07:00:00 5,8 4,4 5 3 N 1014,6 6 -
17.01.2019 06:00:00 6,0 5,0 8 4 SW - 5 -
17.01.2019 05:00:00 7,0 7,0 4 2 SE - 5 -
17.01.2019 04:00:00 7,0 6,7 8 4 E 1015,8 10 0,0
17.01.2019 03:00:00 7,0 6,0 8 4 ENE - 10 -

tt = temperature
td = dewpoint
ff = wind speed
dd = wind direction
ppp = reduced air pressure
vv = visibility
rr = precipitation

Next stations